Regional Weather Roundup
Issued by NWS Kansas City/Pleasant Hill, MO

Home | Current Version | Previous Version | Text Only | Print | Product List | Glossary On
Versions: 1 2 3 4 5 6 7 8 9 10 11 12 13 14 15 16 17 18 19 20 21 22 23 24 25 26 27 28 29 30 31 32 33 34 35 36 37 38 39 40 41 42 43 44 45 46 47 48 49 50
000
ASUS43 KEAX 221610
RWREAX

WEATHER ROUNDUP FOR EASTERN KANSAS AND NORTHWEST MISSOURI
NATIONAL WEATHER SERVICE KANSAS CITY/PLEASANT HILL MO
1100 AM CDT FRI MAY 22 2015

KSZ040-057-103>105-MOZ028-029-037-043-221700-
...KANSAS CITY METROPOLITAN AREA...

CITY           SKY/WX    TMP DP  RH WIND       PRES   REMARKS
K.C. INTL      CLOUDY    58  49  72 SW8       30.29R
K.C. DOWNTOWN  CLOUDY    61  47  59 SW5       30.29R
LEES SUMMIT    CLOUDY    60  48  64 SW6       30.30R
OLATHE - IXD   CLOUDY    60  49  66 S7        30.29S
OLATHE - OJC   CLOUDY    59  48  67 S10       30.29R
LAWRENCE       CLOUDY    58  49  72 S5        30.28F

$$

MOZ001>008-011>017-020>025-030>033-038>040-044>046-053-054-221700-
...NORTHERN AND CENTRAL MISSOURI...

CITY           SKY/WX    TMP DP  RH WIND       PRES   REMARKS
ST. JOSEPH     CLOUDY    59  50  72 SW10      30.28R
MOSBY          CLOUDY    59  50  72 SW6       30.29R
WARRENSBURG    CLOUDY    59  48  67 SW6       30.30R
WHITEMAN AFB   CLOUDY    62  49  63 SW8       30.28S
CLINTON        CLOUDY    61  52  72 SW5       30.31S
SEDALIA        CLOUDY    65  51  60 SW8       30.29R
WARSAW         NOT AVBL
CHILLICOTHE      N/A     66  52  60 CALM      30.26F
KIRKSVILLE     PTSUNNY   69  49  48 W5        30.25R

$$

MOZ041-047>049-056>058-063>065-088>090-097-221700-
...EASTERN AND SOUTHERN MISSOURI...

CITY           SKY/WX    TMP DP  RH WIND       PRES   REMARKS
ST. LOUIS INTL MOSUNNY   70  50  49 VRB6      30.26R
SPIRIT OF STL  PTSUNNY   68  51  54 W7        30.25S
COLUMBIA       MOSUNNY   68  48  48 W6        30.27R
JEFFERSON CITY MOSUNNY   67  49  52 W5        30.27S
ROLLA          MOSUNNY   64  52  64 SW7       30.27S
OSAGE BEACH    CLOUDY    64  46  52 S7        30.30R
SPRINGFIELD    CLOUDY    62  46  55 SE12      30.29F
BRANSON        PTSUNNY   61  46  59 SE12      30.31F
JOPLIN         CLOUDY    62  48  60 S8        30.29F
WEST PLAINS    MOSUNNY   62  45  53 SE5       30.32S

$$

IAZ060-094-KSZ022-034>040-054-083-096-NEZ052-066-093-221700-
...KANSAS...SOUTHEAST NEBRASKA AND IOWA...

CITY           SKY/WX    TMP DP  RH WIND       PRES   REMARKS
TOPEKA         CLOUDY    59  49  69 S5        30.27F
MANHATTAN      CLOUDY    60  47  61 SE10      30.23F
EMPORIA        CLOUDY    57  48  72 SE12      30.25F
CHANUTE        CLOUDY    62  50  64 S8        30.28F
WICHITA        LGT RAIN  54  51  90 SE8       30.21R
OMAHA          CLOUDY    66  46  48 CALM      30.24S
LINCOLN        CLOUDY    59  47  64 S6        30.25S
FALLS CITY       N/A     59  49  69 S6        30.26R
LAMONI         PTSUNNY   70  47  43 VRB3      30.24S
DES MOINES     CLOUDY    70  42  36 CALM      30.22S

$$



USA.gov is the U.S. government's official web portal to all federal, state and local government web resources and services.